Lid_Strength_Index
14 11 10 10 10 10 12 11 13 13 13 12 10 8 7 6 6 6 6 5 5 4 4 3 3 3 3 2 2 2 2 2 2 2 1 1 1 1 1 1 1 2 1 2
14 11 11 11 10 10 10 10 11 13 13 10 9 8 8 6 6 6 7 6 5 4 3 4 3 3 3 3 2 2 2 3 2 2 2 2 2 1 1 1 1 2 2 2
17 12 11 13 11 10 10 9 10 13 11 10 9 7 7 6 6 6 7 6 5 4 4 3 3 3 3 3 2 2 3 2 2 2 2 2 2 2 2 2 2 2 3 3
17 15 16 11 9 8 10 10 9 10 10 9 8 8 5 6 6 6 7 5 5 4 4 3 3 3 2 2 2 3 3 3 2 2 2 2 2 2 2 2 2 2 3 3
17 16 13 10 10 10 11 11 8 9 9 8 8 7 8 6 6 8 7 7 5 4 4 4 3 2 3 3 3 3 3 3 2 2 2 2 2 2 2 2 2 2 2 3
14 16 17 12 8 6 8 13 8 8 8 7 8 11 10 6 5 6 5 5 6 3 3 3 3 3 3 3 3 3 3 3 2 2 2 2 2 2 2 2 2 2 2 3
14 14 13 9 7 7 12 12 8 8 7 7 9 7 6 5 6 6 4 5 5 6 5 3 3 2 3 3 3 2 2 2 2 2 2 2 2 2 2 2 2 2 3 3
13 15 16 8 9 11 9 8 7 7 7 7 7 7 6 6 6 5 6 4 4 5 5 5 3 3 3 3 2 2 2 2 2 2 2 2 2 2 2 2 3 3 4 4
13 14 9 8 9 8 7 8 8 8 7 7 7 7 6 6 6 5 5 5 4 4 5 4 3 3 4 3 2 2 3 3 3 2 2 2 2 3 3 3 3 4 4 5
12 9 10 8 8 7 6 7 6 6 6 6 7 6 6 6 6 5 5 5 4 4 5 5 4 3 3 3 2 3 3 3 3 3 3 2 2 2 3 3 3 4 5 5
11 9 9 8 8 7 6 6 6 6 6 6 6 7 6 6 6 5 5 5 5 4 4 4 4 4 3 3 2 3 3 3 3 3 5 10 11 7 4 7 4 4 3 3
13 9 9 9 8 6 7 8 7 7 7 7 7 8 6 6 6 5 5 4 4 5 5 4 4 4 4 3 3 3 4 5 6 8 9 9 10 11 14 14 11 11 9 5
9 7 7 7 7 7 7 6 6 7 7 7 7 7 6 7 6 5 4 4 4 4 4 4 3 3 3 3 4 5 5 6 6 6 7 7 7 7 8 9 12 14 14 12
6 6 8 7 8 6 6 6 6 6 6 6 6 6 5 5 5 5 5 4 4 4 4 3 3 3 2 2 4 4 5 8 5 5 5 4 4 5 6 5 7 9 14 13
6 5 6 5 5 5 5 5 6 6 5 6 6 5 5 5 5 5 4 3 3 3 3 3 3 3 2 3 3 3 3 4 4 4 4 6 6 6 6 7 7 10 10 11
6 6 6 6 6 6 5 5 6 6 5 5 6 5 6 6 6 5 4 4 4 5 4 3 3 2 3 4 5 5 3 5 4 3 4 5 5 6 6 7 7 7 6 7
7 8 7 7 6 6 6 5 5 5 5 6 5 4 4 6 6 7 7 5 4 5 5 5 4 4 3 4 4 6 5 4 4 3 3 3 4 4 5 6 6 7 7 8
5 5 5 5 6 5 5 5 4 4 5 4 4 4 4 5 6 6 5 7 7 6 6 5 4 4 4 4 5 5 4 5 5 5 5 4 3 3 3 5 5 6 6 8
5 5 5 5 4 5 5 5 4 4 4 4 4 5 4 4 4 5 4 4 4 4 5 4 3 5 5 3 3 4 4 5 5 5 5 5 4 3 3 4 4 5 5 6
5 4 4 4 4 5 5 5 5 4 4 4 4 4 5 4 3 3 4 5 4 3 3 2 2 2 3 3 2 3 3 3 3 4 4 4 4 4 3 5 3 4 4 6
5 4 4 4 4 4 5 5 5 6 5 4 4 4 5 5 3 4 6 6 6 4 5 4 3 4 4 3 3 3 2 3 3 3 4 3 4 3 3 3 3 3 4 5
5 5 5 5 5 6 5 5 5 4 4 4 3 4 4 4 4 5 6 8 7 7 7 7 6 5 6 3 4 2 2 2 3 3 4 4 4 4 4 4 4 4 5 5
6 6 6 5 6 7 6 6 5 5 5 5 4 4 4 4 5 5 6 5 6 6 6 6 5 4 4 4 5 5 3 3 3 4 4 3 4 4 4 4 4 3 3 3
7 7 7 7 8 7 7 7 5 5 5 5 4 3 4 4 4 4 5 4 4 4 4 4 3 4 4 4 4 4 5 5 6 4 4 6 5 5 4 4 4 4 4 4
6 7 7 8 8 8 8 7 6 5 6 6 6 5 5 5 5 4 5 5 5 4 3 4 4 4 4 4 3 3 4 4 4 4 4 6 6 6 6 6 4 4 4 3
7 7 8 9 9 7 7 7 8 7 6 7 6 5 4 4 6 5 5 6 6 6 5 6 6 5 4 3 3 3 3 3 3 3 3 3 3 2 3 4 5 5 5 5
7 8 8 8 8 8 8 8 8 8 7 7 7 6 6 6 5 6 6 6 6 5 6 6 6 6 7 6 5 5 4 4 5 3 3 3 3 3 3 3 4 4 4 5